ASTRA 1H

Last updated on Oct. 26, 2019, 4:24 a.m. UTC

1 25785U 99033A   19298.59628071  .00000048  00000-0  00000+0 0  9999
2 25785   5.4833  65.1452 0007212 106.0942 320.4539  0.98940842 74459
UTC
Height (km)
Latitude
Longitude
Inclination
Orbital Period
UTC large
Height (km)
Speed (km/s)
/
Latitude / Longitude
Inclination (degrees)
Orbital Period (minutes)
Azimuth
Elevation
Range (km)
Doppler Factor
iOS Compass Heading
iOS Angle

Next 30 passes for location: Hong Kong

Rise time Rise Azimuth (degrees) Set time Set Azimuth (degrees) Duration Max altitude (degrees)

No matching passes for this satellites